Probability
4 5 6 6 5 6 6 6 7 9 10 8 5 4 3 2 2 2 1 1 0 0 0 0 0 0 0 0 0 0 0 0 0 0 0 0 0 0 0 0 0 0 0
6 6 8 8 7 7 8 7 7 8 10 9 6 4 3 1 1 1 1 1 0 0 1 1 1 0 0 0 0 0 0 0 0 0 0 0 0 0 0 0 0 0 0
9 8 9 10 10 11 11 9 8 8 9 8 6 4 3 2 1 1 1 1 0 0 1 2 1 0 0 0 0 0 0 0 0 0 0 0 0 0 0 0 0 0 0
14 12 11 13 14 14 15 13 10 8 7 7 5 4 4 4 3 1 1 1 1 0 1 1 1 0 0 1 0 0 0 0 0 0 0 0 0 0 0 0 0 0 0
18 16 17 20 21 19 18 16 13 9 7 7 7 6 6 5 4 2 2 2 1 0 0 0 0 0 0 0 0 0 0 0 0 0 0 0 0 0 0 0 0 0 0
21 19 21 26 27 24 20 18 15 11 9 10 9 7 6 5 4 3 2 2 1 0 0 0 0 0 0 0 0 0 0 0 0 0 0 0 0 0 0 0 0 0 0
24 23 23 27 29 24 21 20 18 15 13 11 9 7 6 4 4 3 2 1 0 0 0 0 0 0 0 0 0 0 0 0 0 0 0 0 0 0 0 0 0 0 0
28 27 26 26 26 23 20 20 20 19 17 13 10 8 7 6 5 3 1 0 0 0 0 0 0 0 0 0 0 0 0 0 0 0 0 0 0 0 0 0 0 0 0
31 30 27 23 21 20 19 19 19 20 19 17 14 11 9 8 6 4 2 0 0 1 1 1 1 0 0 0 0 0 0 0 0 0 0 0 0 0 0 0 1 1 0
31 30 26 21 18 18 19 18 16 17 18 16 13 11 8 7 6 4 2 1 0 1 2 2 2 1 0 0 0 0 0 0 0 0 0 0 0 0 0 0 1 1 1
27 27 26 23 19 17 17 16 14 13 13 12 9 6 5 4 4 3 2 1 0 0 1 2 2 1 0 0 0 0 0 0 0 0 0 0 0 0 0 0 1 1 0
22 24 24 23 20 16 15 14 12 11 11 9 6 3 2 1 1 1 1 1 0 0 0 1 1 1 0 0 0 0 0 0 0 0 0 0 0 0 0 0 0 0 0
19 20 21 21 19 15 12 11 10 9 9 8 5 3 1 0 0 0 0 0 0 0 0 0 0 0 0 0 0 0 0 0 0 0 0 0 0 0 0 0 0 0 0
16 16 17 18 16 13 10 9 8 7 7 6 4 3 2 1 0 0 0 0 0 0 0 0 0 0 0 0 0 0 0 0 0 0 0 0 0 0 0 0 0 0 0
14 14 15 14 12 11 9 8 7 6 5 4 3 3 2 1 0 0 0 0 0 0 0 0 0 0 0 0 0 0 0 0 0 0 0 0 0 0 0 0 0 0 0
13 13 14 13 9 8 8 7 6 6 4 3 3 3 1 0 0 0 0 0 0 0 0 0 0 0 0 0 0 0 0 0 0 0 0 0 0 0 0 0 0 0 0
14 13 13 11 8 6 6 6 6 5 4 3 3 2 1 0 0 0 0 0 0 0 0 0 0 0 0 0 0 0 0 0 0 0 0 0 0 0 0 0 0 0 0
15 13 11 10 7 5 4 6 5 4 3 3 3 2 1 0 0 0 0 0 0 0 0 0 0 0 0 0 0 0 0 0 0 0 0 0 0 0 0 0 0 0 0
16 14 12 11 8 5 4 5 4 3 3 3 2 1 0 0 0 0 0 0 0 0 0 0 0 0 0 0 0 0 0 0 0 0 0 0 0 0 0 0 0 0 0
16 15 14 13 10 6 4 4 3 2 2 1 1 0 0 0 0 0 0 0 0 0 0 0 0 0 0 0 0 0 0 0 0 0 0 0 0 0 0 0 0 0 0
15 15 15 14 10 7 5 3 1 1 1 0 0 0 0 0 0 0 0 0 0 0 0 0 0 0 0 0 0 0 0 0 0 0 0 0 0 0 0 0 0 0 0
14 14 14 14 12 9 6 3 1 0 0 0 0 0 0 0 0 0 0 0 0 0 0 0 0 0 0 0 0 0 0 0 0 0 0 0 0 0 0 0 0 0 0
13 14 14 14 13 10 7 5 2 1 0 0 0 0 0 0 0 0 0 0 0 0 0 0 0 0 0 0 0 0 0 0 0 0 0 0 0 0 0 0 0 0 0
11 13 14 13 13 11 8 6 5 3 1 0 0 0 0 0 0 0 0 0 0 0 0 0 0 0 0 0 0 0 0 0 0 0 0 0 0 0 0 0 0 0 0
9 11 12 12 11 9 6 5 6 5 3 1 0 0 0 0 0 0 0 0 0 0 0 0 0 0 0 0 0 0 0 0 0 0 0 0 0 0 0 0 0 0 0
7 9 10 10 10 8 5 4 5 5 4 2 1 0 0 0 0 0 0 0 0 0 0 0 0 0 0 0 0 0 0 0 0 0 0 0 0 0 0 0 0 0 0
Wind_Speed
5 6 13 15 15 15 15 15 15 16 16 15 15 15 15 15 15 14 14 14 14 14 15 15 15 15 15 15 15 15 14 14 14 15 14 14 14 14 13 13 11 7 13
8 8 14 15 16 16 15 15 15 15 15 15 15 15 15 15 14 14 14 14 14 14 15 15 15 15 15 15 15 14 14 14 14 14 14 12 12 13 13 12 11 8 12
10 9 12 15 16 16 15 15 15 15 15 15 15 15 14 14 14 14 14 14 14 14 14 15 15 15 14 14 14 14 14 14 14 14 12 6 7 12 12 12 12 12 12
11 9 10 14 16 16 16 16 15 15 15 14 14 14 14 14 14 14 14 14 14 14 14 14 14 14 14 13 13 13 13 13 14 12 6 5 5 11 12 12 12 12 11
9 8 10 15 16 16 16 15 15 15 14 14 14 14 14 14 14 14 14 14 14 14 13 14 13 13 13 13 13 13 14 14 13 10 5 5 4 9 12 12 11 11 11
8 7 10 15 15 15 15 15 15 14 14 14 14 14 14 14 14 14 13 13 13 13 13 13 13 13 13 13 13 13 13 13 10 5 5 5 4 9 11 11 10 10 10
9 7 10 13 15 15 14 14 14 14 14 14 14 14 14 14 14 13 13 13 13 12 13 12 12 12 12 12 12 12 12 12 7 5 5 4 5 10 10 11 11 11 10
9 8 9 13 13 13 13 14 13 13 14 13 13 14 14 14 13 13 13 12 12 12 12 12 12 12 12 12 12 12 11 10 7 6 4 4 7 10 11 11 11 11 11
8 8 7 8 9 12 12 12 12 12 13 13 13 13 13 13 13 13 12 12 11 12 12 12 12 12 12 12 12 12 11 11 6 4 4 3 8 10 10 11 11 11 11
7 7 7 7 7 6 7 11 11 12 12 13 12 12 12 12 12 12 11 11 11 11 11 11 11 11 11 11 11 11 11 9 5 4 3 4 9 10 10 11 11 11 11
8 7 7 7 7 7 6 8 9 11 12 11 10 12 10 6 6 6 8 11 11 11 10 11 11 11 11 10 11 11 8 3 4 3 3 7 9 10 10 10 11 11 11
9 8 7 7 7 7 6 6 5 5 6 6 5 6 5 5 5 6 9 10 11 10 10 11 11 10 8 4 6 8 3 4 3 3 4 9 9 10 10 10 11 11 11
9 8 7 7 7 6 5 5 4 3 4 5 6 6 5 4 4 4 3 5 5 7 5 6 6 4 4 3 3 3 3 3 2 2 4 9 9 10 10 10 11 11 11
9 8 8 8 7 6 5 5 4 4 3 3 4 5 5 4 3 3 3 3 3 2 3 3 3 4 4 4 4 4 4 3 2 2 4 10 10 10 10 10 11 11 11
9 9 8 8 8 7 6 5 4 4 4 4 4 4 5 4 4 3 3 3 3 2 3 3 3 3 3 3 3 3 3 3 3 3 3 9 10 10 10 11 11 11 11
10 9 8 8 8 7 6 5 4 4 4 4 3 4 4 4 4 4 3 3 2 2 2 2 3 3 2 2 3 3 2 2 3 3 3 5 10 10 11 11 11 12 12
10 9 8 8 7 7 6 5 4 4 4 4 3 4 4 4 4 4 3 3 2 2 3 3 3 2 2 2 2 2 2 2 2 3 3 3 4 8 11 11 12 12 12
9 9 8 8 8 7 6 5 4 4 4 3 3 3 4 4 5 4 3 2 2 2 2 3 2 2 2 2 2 2 2 1 2 2 2 2 2 3 6 11 12 12 13
9 10 8 8 8 7 6 5 4 4 4 3 3 3 3 4 4 4 3 2 3 3 2 2 2 2 1 2 1 1 1 1 1 2 2 2 3 3 3 7 12 13 13
8 8 9 8 7 7 5 5 4 4 3 3 3 3 4 3 4 4 3 3 3 3 2 2 2 2 1 1 1 1 2 1 1 1 1 2 2 3 3 4 4 7 12
7 7 8 9 8 7 5 4 4 3 2 2 2 3 4 4 4 4 3 3 3 3 2 2 2 2 2 2 2 2 2 1 1 1 1 1 2 3 3 3 3 3 5
9 8 8 9 9 8 5 4 3 3 3 2 2 3 3 3 3 3 4 3 3 3 3 2 2 2 2 2 2 2 3 4 2 1 1 1 2 2 3 4 4 4 4
8 9 8 9 9 8 7 5 5 4 3 2 2 2 2 3 3 3 3 3 3 3 3 2 2 3 2 1 2 2 1 2 4 3 2 1 2 2 3 3 4 4 5
6 6 7 8 8 8 8 7 8 5 4 4 3 2 2 3 3 3 3 3 3 2 3 2 2 2 3 1 1 1 1 1 1 4 3 2 3 3 3 4 4 4 4
4 5 5 6 7 7 7 8 8 5 3 3 3 4 3 2 3 3 3 3 3 2 2 2 2 2 2 2 1 1 0 1 0 1 4 5 3 2 3 4 3 4 4
3 3 5 6 6 6 7 7 7 8 6 6 5 4 3 2 2 2 3 3 2 2 2 2 2 2 2 2 1 1 1 1 1 1 3 5 5 4 4 3 3 3 4
Wind_Direction
164 166 154 143 137 133 129 125 121 117 113 111 110 109 107 105 103 100 98 95 92 89 88 86 83 81 79 77 75 74 72 69 67 65 63 62 61 62 61 58 54 45 51
148 156 150 144 139 135 131 126 121 118 115 113 111 111 109 107 104 101 98 96 93 90 88 85 83 81 79 78 76 74 73 70 68 65 60 55 56 60 59 56 53 51 50
141 149 147 144 140 136 133 128 124 121 118 115 114 113 111 108 104 101 99 95 92 90 87 85 82 80 79 77 76 75 74 72 70 65 54 37 43 57 58 54 51 49 47
138 142 145 143 140 138 135 131 128 126 121 119 116 114 112 109 106 103 99 95 92 90 88 86 83 80 78 77 75 74 74 73 69 60 45 31 33 53 53 52 49 47 44
131 135 140 141 141 138 136 134 131 129 124 121 118 116 113 110 107 103 100 96 94 92 89 86 84 81 79 77 76 75 74 72 64 53 38 28 28 50 51 49 46 44 41
129 132 139 137 138 137 136 134 133 130 126 123 121 118 115 111 107 104 101 98 95 92 90 86 84 81 80 79 78 76 74 69 58 44 35 24 23 48 50 47 43 41 38
131 131 138 137 137 136 136 135 132 130 127 125 123 120 116 112 109 105 102 99 97 95 91 87 84 81 80 79 77 76 72 67 58 43 32 21 30 45 47 45 42 38 35
129 127 132 132 131 133 133 132 133 131 128 126 124 121 117 114 110 106 103 100 98 95 91 88 85 81 78 77 75 73 70 64 56 44 29 20 35 44 46 43 39 34 31
122 120 119 122 123 125 127 127 127 127 126 123 121 118 114 112 111 108 104 100 97 94 91 88 85 81 78 76 74 72 67 60 50 36 28 19 37 43 43 40 36 32 27
119 118 116 114 114 116 120 121 121 119 117 116 113 110 106 104 103 102 99 98 96 94 92 90 86 81 78 75 73 70 62 52 38 29 17 26 39 40 39 35 31 27 24
130 124 122 119 115 113 114 114 114 113 109 106 104 102 98 91 90 90 91 94 94 93 93 91 85 81 75 70 69 66 58 42 34 24 12 35 38 37 35 31 27 24 20
151 139 131 127 123 120 116 107 102 100 99 96 100 100 94 89 85 86 82 86 87 86 88 85 80 75 68 58 59 58 48 40 39 20 24 35 35 34 31 28 23 19 15
156 144 138 131 126 123 120 115 105 101 99 98 101 102 100 89 83 76 75 69 69 73 70 72 67 61 62 61 58 52 47 44 34 16 22 35 34 31 28 23 19 15 12
153 148 141 135 128 124 121 119 117 114 109 109 108 109 109 103 91 85 79 73 68 71 76 69 72 66 64 60 63 59 49 43 30 17 22 34 31 26 23 19 14 11 8
154 151 146 140 137 134 126 128 124 123 121 120 114 108 112 114 110 99 88 78 73 76 82 80 77 74 67 57 54 59 50 41 37 32 16 29 29 24 20 16 12 7 3
161 156 148 144 143 138 135 133 133 128 123 117 115 117 115 117 118 111 99 87 77 78 81 90 90 84 71 63 52 44 45 41 39 35 27 20 23 22 19 14 10 6 1
161 155 150 148 142 140 137 135 130 129 126 122 119 118 116 116 119 115 107 97 86 84 82 79 75 74 67 55 46 35 40 41 42 34 31 24 10 13 15 12 7 3 359
155 157 155 152 145 141 137 132 130 128 126 123 120 118 115 115 119 116 111 105 99 92 86 87 74 64 54 45 27 10 18 27 36 33 33 26 14 4 3 8 5 1 358
159 157 156 151 149 145 134 125 122 123 120 121 121 120 118 115 118 120 117 111 108 96 85 90 69 74 62 30 15 11 2 11 10 20 27 21 11 2 357 1 2 359 357
156 156 156 151 146 138 127 114 109 105 107 111 119 125 125 121 119 117 113 110 108 100 79 71 74 56 62 23 13 1 337 330 348 7 8 9 2 359 356 354 352 351 355
152 158 162 158 153 147 145 143 141 141 129 118 121 124 127 126 126 120 118 115 113 112 112 104 87 65 36 15 35 359 342 332 333 331 346 354 349 343 345 348 343 337 341
167 170 171 168 164 163 162 151 133 128 124 123 119 114 123 129 132 128 126 133 128 117 107 99 96 92 48 33 66 42 347 337 337 327 325 314 326 332 337 341 331 332 331
174 177 180 176 169 164 151 129 109 96 89 102 121 132 133 133 128 126 131 135 133 131 139 135 120 117 114 28 46 102 107 283 310 311 303 307 324 324 321 321 324 324 327
185 178 176 171 165 163 156 155 154 158 166 179 167 155 139 133 133 131 132 129 134 133 138 144 124 121 128 124 41 50 134 185 284 312 309 309 319 311 309 315 316 311 314
174 168 165 163 162 163 164 168 165 158 155 138 133 137 136 129 129 129 132 131 133 134 141 133 127 120 128 143 144 133 68 29 171 249 298 312 316 293 296 296 299 304 307
137 146 155 161 163 161 163 170 171 164 155 147 153 159 155 142 131 128 130 135 141 137 143 150 144 135 139 135 138 147 160 180 259 249 280 303 308 303 300 293 296 303 307